| time (UTC) | temp F | wind direction | speed knots | gust knots | rain 1hr in | rain 24hr in | rain mn in | humidity % | barometer mb |
| 20260506173049 | 63 | 0 | 0.9 | 0.0 | 0.00 | 0.00 | 0.00 | 82 | |
| 20260506172019 | 63 | 0 | 1.7 | 0.0 | 0.00 | 0.00 | 0.00 | 82 | |
| 20260506170949 | 63 | 0 | 1.7 | 0.0 | 0.00 | 0.00 | 0.00 | 82 | |
| 20260506165919 | 62 | 0 | 0.9 | 0.0 | 0.00 | 0.00 | 0.00 | 83 | |
| 20260506164849 | 62 | 0 | 1.7 | 0.0 | 0.00 | 0.00 | 0.00 | 84 | |
| 20260506163819 | 61 | 0 | 0.0 | 0.0 | 0.00 | 0.00 | 0.00 | 85 | |
| 20260506162749 | 60 | 0 | 0.9 | 0.0 | 0.00 | 0.00 | 0.00 | 88 | |
| 20260506161719 | 60 | 0 | 0.0 | 0.0 | 0.00 | 0.00 | 0.00 | 88 | |
| 20260506160649 | 60 | 0 | 0.0 | 0.0 | 0.00 | 0.00 | 0.00 | 88 | |
| 20260506155649 | 59 | 0 | 0.0 | 0.0 | 0.00 | 0.00 | 0.00 | 90 | |
| 20260506154619 | 59 | 0 | 0.0 | 0.0 | 0.00 | 0.00 | 0.00 | 91 | |
| 20260506153549 | 58 | 0 | 0.0 | 0.0 | 0.00 | 0.00 | 0.00 | 93 | |
| 20260506152549 | 57 | 0 | 0.0 | 0.0 | 0.00 | 0.00 | 0.00 | 96 | |
| 20260506151549 | 57 | 0 | 0.0 | 0.0 | 0.00 | 4.19 | 0.00 | 98 | |
| 20260506150519 | 57 | 0 | 0.0 | 0.0 | 0.00 | 4.19 | 0.00 | 99 | |
| 20260506145519 | 56 | 0 | 0.0 | 0.0 | 0.00 | 4.19 | 0.00 | 99 | |
| 20260506144519 | 56 | 0 | 0.0 | 0.0 | 0.00 | 4.19 | 0.00 | 99 | |
| 20260506143449 | 56 | 0 | 0.0 | 0.0 | 0.00 | 4.19 | 0.00 | 99 | |
| 20260506142420 | 55 | 0 | 0.0 | 0.0 | 0.00 | 4.19 | 0.00 | 99 | |
| 20260506141349 | 54 | 0 | 0.0 | 0.0 | 0.00 | 4.19 | 0.00 | 99 | |
| 20260506140349 | 54 | 0 | 0.0 | 0.0 | 0.00 | 4.19 | 0.00 | 99 | |
| 20260506135349 | 54 | 0 | 0.0 | 0.0 | 0.00 | 4.19 | 0.00 | 99 | |
| 20260506134349 | 54 | 0 | 0.0 | 0.0 | 0.00 | 4.19 | 0.00 | 99 | |
| 20260506133319 | 54 | 0 | 0.0 | 0.0 | 0.00 | 4.19 | 0.00 | 99 | |
| 20260506132249 | 54 | 0 | 0.0 | 0.0 | 0.00 | 4.19 | 0.00 | 99 | |
| 20260506131249 | 54 | 0 | 0.0 | 0.0 | 0.00 | 4.19 | 0.00 | 99 | |
| 20260506130219 | 54 | 0 | 0.0 | 0.0 | 0.00 | 4.19 | 0.00 | 99 | |
| 20260506125219 | 54 | 0 | 0.0 | 0.0 | 0.00 | 4.19 | 0.00 | 99 | |
| 20260506124219 | 54 | 0 | 0.0 | 0.0 | 0.00 | 4.19 | 0.00 | 99 | |
| 20260506123149 | 54 | 0 | 0.0 | 0.0 | 0.00 | 4.19 | 0.00 | 99 | |
| 20260506122149 | 54 | 0 | 0.0 | 0.0 | 0.00 | 4.19 | 0.00 | 99 | |
| 20260506121123 | 54 | 0 | 0.0 | 0.0 | 0.00 | 4.19 | 0.00 | 99 | |
| 20260506120050 | 54 | 0 | 0.0 | 0.0 | 0.00 | 4.19 | 0.00 | 99 | |
| 20260506115020 | 54 | 0 | 0.0 | 0.0 | 0.00 | 4.19 | 0.00 | 99 | |
| 20260506113949 | 54 | 0 | 0.0 | 0.0 | 0.00 | 4.19 | 0.00 | 99 | |
| 20260506112949 | 54 | 0 | 0.0 | 0.0 | 0.00 | 4.19 | 0.00 | 99 | |
| 20260506111920 | 54 | 0 | 0.0 | 0.0 | 0.00 | 4.19 | 0.00 | 99 | |
| 20260506110850 | 54 | 0 | 0.0 | 0.0 | 0.00 | 4.19 | 0.00 | 99 | |
| 20260506105850 | 54 | 0 | 0.0 | 0.0 | 0.00 | 4.19 | 0.00 | 99 | |
| 20260506104820 | 54 | 0 | 0.0 | 0.0 | 0.00 | 4.19 | 0.00 | 99 | |
| 20260506103750 | 54 | 0 | 0.0 | 0.0 | 0.00 | 4.19 | 0.00 | 99 | |
| 20260506102720 | 54 | 0 | 0.0 | 0.0 | 0.00 | 4.19 | 0.00 | 99 | |
| 20260506101650 | 54 | 0 | 0.0 | 0.0 | 0.00 | 4.19 | 0.00 | 99 | |
| 20260506100650 | 54 | 0 | 0.0 | 0.0 | 0.00 | 4.19 | 0.00 | 99 | |
| 20260506095650 | 54 | 0 | 0.0 | 0.0 | 0.00 | 4.19 | 0.00 | 99 | |
| 20260506094620 | 54 | 0 | 0.0 | 0.0 | 0.00 | 4.19 | 0.00 | 99 | |
| 20260506093550 | 54 | 0 | 0.0 | 0.0 | 0.00 | 4.19 | 0.00 | 99 | |
| 20260506092550 | 54 | 0 | 0.0 | 0.0 | 0.00 | 4.19 | 0.00 | 99 | |
| 20260506091550 | 54 | 0 | 0.0 | 0.0 | 0.00 | 4.19 | 0.00 | 99 | |
| 20260506090520 | 54 | 0 | 0.0 | 0.0 | 0.00 | 4.19 | 0.00 | 99 | |
| 20260506085450 | 54 | 0 | 0.0 | 0.0 | 0.00 | 4.19 | 0.00 | 99 | |
| 20260506084420 | 54 | 0 | 0.0 | 0.0 | 0.00 | 4.19 | 0.00 | 99 | |
| 20260506083420 | 54 | 0 | 0.0 | 0.0 | 0.00 | 4.19 | 0.00 | 99 | |
| 20260506082350 | 54 | 0 | 0.0 | 0.0 | 0.00 | 4.19 | 0.00 | 99 | |
| 20260506081350 | 54 | 0 | 0.0 | 0.0 | 0.00 | 4.19 | 0.00 | 98 | |
| 20260506080350 | 55 | 0 | 0.0 | 0.0 | 0.00 | 4.19 | 0.00 | 98 | |
| 20260506073250 | 55 | 0 | 0.0 | 0.0 | 0.00 | 4.19 | 0.00 | 98 | |
| 20260506072250 | 55 | 0 | 0.0 | 0.0 | 0.00 | 4.19 | 0.00 | 99 | |
| 20260506071220 | 55 | 0 | 0.0 | 0.0 | 0.00 | 4.21 | 0.00 | 98 | |
| 20260506070150 | 55 | 0 | 0.0 | 0.0 | 0.00 | 4.22 | 0.00 | 98 | |
| 20260506062049 | 56 | 0 | 0.0 | 0.0 | 0.00 | 4.24 | 4.22 | 98 | |
| 20260506061019 | 56 | 0 | 0.0 | 0.0 | 0.00 | 4.25 | 4.22 | 97 | |
| 20260506050820 | 56 | 0 | 0.0 | 0.0 | 0.00 | 4.31 | 4.22 | 95 | |
| 20260506044719 | 56 | 0 | 0.0 | 0.0 | 0.00 | 4.36 | 4.22 | 93 | |
| 20260506043719 | 57 | 0 | 0.0 | 0.0 | 0.00 | 4.39 | 4.22 | 91 | |
| 20260506042650 | 57 | 0 | 0.0 | 0.0 | 0.00 | 4.40 | 4.22 | 90 | |
| 20260506041620 | 57 | 0 | 0.0 | 0.0 | 0.00 | 4.40 | 4.22 | 90 | |
| 20260506040549 | 57 | 0 | 0.0 | 0.0 | 0.00 | 4.43 | 4.22 | 89 | |
| 20260506035519 | 57 | 0 | 0.0 | 0.0 | 0.00 | 4.55 | 4.22 | 89 | |
| 20260506034450 | 57 | 0 | 0.0 | 0.0 | 0.00 | 4.61 | 4.22 | 89 | |
| 20260506033419 | 57 | 0 | 0.0 | 0.0 | 0.00 | 4.64 | 4.22 | 88 | |
| 20260506032350 | 57 | 0 | 0.0 | 0.0 | 0.00 | 4.68 | 4.22 | 87 | |
| 20260506031349 | 58 | 0 | 0.0 | 0.0 | 0.00 | 4.72 | 4.22 | 86 | |
| 20260506030319 | 58 | 0 | 0.0 | 0.0 | 0.00 | 4.76 | 4.22 | 85 | |
| 20260506025250 | 58 | 0 | 0.0 | 0.0 | 0.00 | 4.82 | 4.22 | 85 | |
| 20260506024220 | 59 | 0 | 1.7 | 0.0 | 0.00 | 4.85 | 4.22 | 84 | |
| 20260506023149 | 59 | 0 | 1.7 | 0.0 | 0.00 | 4.88 | 4.22 | 84 | |
| 20260506022120 | 60 | 0 | 0.0 | 0.0 | 0.00 | 4.91 | 4.22 | 83 | |
| 20260506021049 | 60 | 0 | 1.7 | 0.0 | 0.00 | 4.92 | 4.22 | 83 | |
| 20260506020019 | 60 | 0 | 0.9 | 0.0 | 0.00 | 4.94 | 4.22 | 84 | |
| 20260506014950 | 60 | 0 | 0.9 | 0.0 | 0.00 | 4.97 | 4.22 | 82 | |
| 20260506013919 | 61 | 0 | 0.9 | 0.0 | 0.00 | 4.98 | 4.22 | 81 | |
| 20260506012920 | 61 | 0 | 1.7 | 0.0 | 0.00 | 4.98 | 4.22 | 80 | |
| 20260506011850 | 61 | 0 | 0.9 | 0.0 | 0.00 | 5.01 | 4.22 | 81 | |
| 20260506010820 | 61 | 0 | 0.9 | 0.0 | 0.00 | 5.01 | 4.22 | 80 | |
| 20260506005820 | 61 | 0 | 1.7 | 0.0 | 0.00 | 5.01 | 4.22 | 80 | |
| 20260506004750 | 62 | 0 | 2.6 | 0.0 | 0.00 | 5.04 | 4.22 | 78 | |
| 20260506003719 | 62 | 0 | 0.9 | 0.0 | 0.00 | 5.06 | 4.22 | 76 | |
| 20260506002650 | 62 | 0 | 0.0 | 0.0 | 0.00 | 5.07 | 4.22 | 76 | |
| 20260506001649 | 62 | 0 | 0.9 | 0.0 | 0.00 | 5.10 | 4.22 | 78 | |
| 20260506000620 | 61 | 0 | 0.9 | 0.0 | 0.00 | 5.12 | 4.22 | 79 | |
| 20260505235550 | 61 | 0 | 0.0 | 0.0 | 0.00 | 5.12 | 4.22 | 80 | |
| 20260505234520 | 59 | 0 | 0.9 | 0.0 | 0.00 | 5.13 | 4.22 | 84 | |
| 20260505233450 | 59 | 0 | 0.9 | 0.0 | 0.00 | 5.15 | 4.22 | 83 | |
| 20260505232450 | 60 | 0 | 1.7 | 0.0 | 0.00 | 5.16 | 4.22 | 83 | |
| 20260505231419 | 59 | 0 | 0.9 | 0.0 | 0.00 | 5.19 | 4.22 | 83 | |
| 20260505230419 | 60 | 0 | 1.7 | 0.0 | 0.00 | 5.19 | 4.22 | 82 | |
| 20260505225350 | 60 | 0 | 0.9 | 0.0 | 0.00 | 5.19 | 4.22 | 81 | |
| 20260505224350 | 60 | 0 | 1.7 | 0.0 | 0.00 | 5.22 | 4.22 | 80 | |
| 20260505223320 | 61 | 0 | 4.3 | 0.0 | 0.00 | 5.25 | 4.22 | 79 | |
| 20260505222320 | 61 | 0 | 0.9 | 0.0 | 0.00 | 5.27 | 4.22 | 79 | |
| 20260505221319 | 61 | 0 | 1.7 | 0.0 | 0.00 | 5.28 | 4.22 | 80 | |
| 20260505220250 | 60 | 0 | 2.6 | 0.0 | 0.00 | 5.30 | 4.22 | 81 | |
| 20260505215250 | 60 | 0 | 2.6 | 0.0 | 0.00 | 5.31 | 4.22 | 81 | |
| 20260505214250 | 60 | 0 | 2.6 | 0.0 | 0.00 | 5.31 | 4.22 | 82 | |
| 20260505213220 | 60 | 0 | 0.9 | 0.0 | 0.00 | 5.34 | 4.22 | 83 | |
| 20260505212220 | 60 | 0 | 2.6 | 0.0 | 0.00 | 5.36 | 4.22 | 81 | |
| 20260505211150 | 60 | 0 | 0.0 | 0.0 | 0.00 | 5.37 | 4.22 | 81 | |
| 20260505210150 | 60 | 0 | 0.9 | 0.0 | 0.00 | 5.39 | 4.22 | 81 | |
| 20260505205120 | 60 | 0 | 0.0 | 0.0 | 0.00 | 5.39 | 4.22 | 80 | |
| 20260505204050 | 60 | 0 | 0.0 | 0.0 | 0.00 | 5.40 | 4.22 | 82 | |
| 20260505203050 | 59 | 0 | 0.0 | 0.0 | 0.00 | 5.40 | 4.22 | 83 | |
| 20260505202020 | 58 | 0 | 0.0 | 0.0 | 0.00 | 5.43 | 4.22 | 84 | |
| 20260505200950 | 58 | 0 | 0.0 | 0.0 | 0.00 | 5.43 | 4.22 | 84 | |
| 20260505195950 | 58 | 0 | 0.9 | 0.0 | 0.00 | 5.43 | 4.22 | 85 | |
| 20260505194950 | 59 | 0 | 0.0 | 0.0 | 0.00 | 5.43 | 4.22 | 82 | |
| 20260505193950 | 59 | 0 | 0.9 | 0.0 | 0.00 | 5.43 | 4.22 | 83 | |
| 20260505192920 | 61 | 0 | 2.6 | 0.0 | 0.00 | 5.43 | 4.22 | 80 | |
| 20260505191920 | 62 | 0 | 0.9 | 0.0 | 0.00 | 5.43 | 4.22 | 77 | |
| 20260505190850 | 62 | 0 | 1.7 | 0.0 | 0.00 | 5.43 | 4.22 | 76 | |
| 20260505185850 | 61 | 0 | 2.6 | 0.0 | 0.00 | 5.43 | 4.22 | 79 | |
| 20260505184820 | 60 | 0 | 2.6 | 0.0 | 0.00 | 5.43 | 4.22 | 82 | |
| 20260505183750 | 60 | 0 | 1.7 | 0.0 | 0.00 | 5.43 | 4.22 | 81 | |
| 20260505182750 | 60 | 0 | 0.0 | 0.0 | 0.00 | 5.43 | 4.22 | 81 | |
| 20260505181720 | 61 | 0 | 2.6 | 0.0 | 0.00 | 5.43 | 4.22 | 75 | |
| 20260505180650 | 61 | 0 | 0.0 | 0.0 | 0.00 | 5.43 | 4.22 | 76 | |
| 20260505175650 | 63 | 0 | 1.7 | 0.0 | 0.00 | 5.43 | 4.22 | 71 | |
| 20260505174620 | 63 | 0 | 1.7 | 0.0 | 0.00 | 5.43 | 4.22 | 71 |